Total_Precipitation_Accumulation
3.09 3.24 3.60 2.98 2.61 2.56 2.56 2.66 2.62 2.38 2.35 2.39 2.53 2.56 2.55 2.63 2.69 2.86 2.95 2.92 3.01 3.29 3.66 4.03 4.16 4.31 4.63 4.69 4.29 3.91 3.86 4.06 4.14 4.00 3.80 3.55 3.35 3.41 3.51 3.62 3.45 2.49 2.53
2.52 2.79 3.14 2.67 2.34 2.25 2.38 2.64 2.45 2.36 2.34 2.39 2.47 2.53 2.55 2.69 2.70 2.81 2.88 3.01 3.25 3.52 3.64 3.86 3.97 3.97 4.09 4.07 3.82 3.49 3.51 3.93 4.36 4.28 4.01 3.57 3.53 3.56 3.65 3.61 3.50 2.68 2.63
1.85 2.23 2.43 2.36 2.13 2.12 2.27 2.28 2.15 2.15 2.23 2.38 2.48 2.54 2.58 2.70 2.72 2.77 2.94 3.13 3.38 3.59 3.67 3.67 3.67 3.69 3.67 3.62 3.53 3.33 3.58 4.03 4.39 4.58 4.60 3.36 3.15 3.71 3.83 3.64 3.19 2.74 2.61
1.37 1.69 1.84 2.04 1.98 1.94 1.83 1.92 2.04 2.01 2.04 2.21 2.50 2.69 2.70 2.84 2.86 2.90 3.14 3.33 3.50 3.46 3.48 3.50 3.46 3.38 3.39 3.33 3.24 3.35 3.52 3.98 4.49 4.97 4.42 3.14 2.67 3.29 3.72 3.44 3.06 2.90 2.77
1.28 1.41 1.70 1.74 1.67 1.74 1.73 1.86 2.03 2.07 2.10 2.12 2.36 2.64 2.85 3.04 3.09 3.19 3.34 3.50 3.54 3.39 3.24 3.26 3.27 3.03 3.11 3.20 3.24 3.45 3.61 4.28 4.99 4.81 3.72 3.38 3.16 3.31 3.39 3.42 3.33 3.26 3.03
1.11 1.19 1.42 1.65 1.64 1.71 1.76 1.81 1.84 1.97 2.16 2.24 2.42 2.72 2.91 3.13 3.31 3.49 3.49 3.60 3.53 3.29 3.20 3.19 3.12 2.98 3.02 3.17 3.40 3.50 3.63 4.35 4.63 3.70 3.27 3.20 3.06 3.24 3.24 3.48 3.51 3.42 3.28
0.95 1.12 1.30 1.54 1.63 1.69 1.67 1.73 1.80 1.93 2.24 2.39 2.39 2.52 2.63 2.85 3.23 3.40 3.35 3.38 3.25 3.09 3.03 3.06 3.06 2.94 2.89 3.03 3.37 3.42 3.67 4.04 3.56 3.07 3.17 3.21 2.86 2.79 3.07 3.53 3.66 3.53 3.18
0.96 0.97 1.21 1.48 1.61 1.65 1.64 1.77 1.91 2.17 2.42 2.52 2.40 2.39 2.46 2.70 3.01 3.07 3.04 2.98 2.94 2.99 2.97 3.01 3.00 2.86 2.78 3.05 3.24 3.29 3.56 3.49 2.74 2.55 2.62 2.65 2.55 2.63 3.08 3.45 3.59 3.56 3.24
1.18 1.12 1.23 1.33 1.41 1.54 1.71 1.89 2.17 2.45 2.60 2.54 2.34 2.32 2.51 2.66 2.73 2.70 2.78 2.79 2.86 2.92 2.94 2.93 2.82 2.75 2.74 2.95 3.03 3.07 3.37 3.54 2.85 2.56 2.25 2.49 2.76 2.94 3.37 3.54 3.51 3.57 3.48
1.50 1.44 1.38 1.42 1.48 1.45 1.73 2.11 2.36 2.59 2.69 2.63 2.50 2.56 2.73 2.84 2.74 2.79 2.75 2.84 2.92 3.07 3.14 3.19 3.13 3.00 3.01 3.05 2.91 3.06 3.49 3.33 2.71 2.44 2.42 2.33 2.79 3.12 3.44 3.60 3.61 3.52 3.44
2.04 1.79 1.66 1.53 1.59 1.72 1.81 2.03 2.54 2.81 2.79 2.77 2.95 3.11 3.21 3.14 2.93 3.12 2.91 3.22 3.33 3.42 3.50 3.67 3.59 3.33 3.26 3.20 3.29 3.61 3.42 2.98 2.94 2.80 2.61 2.49 2.76 3.12 3.59 3.70 3.67 3.60 3.39
2.33 1.93 1.79 1.63 1.61 1.73 1.92 2.50 2.93 2.71 2.78 3.02 3.34 3.49 3.70 3.61 3.50 3.06 3.36 3.73 4.03 4.32 4.36 4.44 4.39 4.01 3.48 3.22 3.87 4.32 3.17 2.76 2.84 2.80 2.68 2.68 2.98 3.35 3.63 3.54 3.48 3.48 3.36
2.17 1.96 1.91 1.97 2.06 1.99 2.16 2.63 3.01 2.94 3.09 3.21 3.26 3.46 3.67 3.38 3.29 3.42 3.78 4.13 4.42 4.63 4.65 4.88 4.98 4.37 3.95 3.83 4.11 4.14 3.28 2.99 2.85 2.73 2.90 2.99 3.10 3.39 3.80 3.66 3.53 3.57 3.57
2.67 2.42 2.29 2.35 2.41 2.45 2.41 2.68 2.93 2.83 2.98 3.14 3.24 3.23 3.37 3.55 3.63 3.77 4.18 4.21 4.38 4.55 4.96 4.77 5.17 4.91 4.50 4.22 4.19 4.04 3.42 3.14 3.06 3.16 3.50 3.25 3.06 3.46 3.96 3.96 3.83 3.64 3.53
3.29 3.28 3.05 2.75 2.61 2.72 2.95 3.00 2.90 3.02 3.13 3.19 3.38 3.37 3.34 3.65 3.86 3.97 4.09 4.32 4.03 4.10 4.59 4.80 4.69 5.00 5.07 4.76 4.49 4.23 3.97 3.61 3.39 3.40 3.52 3.53 3.41 3.54 3.94 4.18 4.06 3.96 3.76
3.44 3.59 3.38 3.25 3.09 3.16 3.43 3.58 3.54 3.43 3.71 3.65 3.57 3.46 3.58 3.80 4.16 4.37 4.31 4.42 4.13 3.93 4.18 4.46 4.56 5.33 5.27 5.14 4.64 4.32 4.29 4.23 3.88 3.72 3.65 3.84 3.67 3.48 3.70 4.18 4.34 4.32 4.22
3.76 3.67 3.59 3.57 3.54 3.74 3.85 3.83 3.65 3.60 3.50 3.60 3.71 3.70 3.70 3.66 4.10 4.37 4.58 4.55 4.25 4.01 4.27 4.50 4.76 5.08 4.88 4.80 4.62 4.43 4.32 4.21 3.92 3.81 3.99 4.15 3.86 3.68 3.63 3.89 4.29 4.50 4.62
4.07 4.09 4.07 3.83 4.01 4.24 4.33 4.21 4.05 3.90 3.74 3.56 3.50 3.67 3.72 3.83 4.11 4.41 4.34 4.21 4.30 4.26 4.55 4.80 4.91 5.00 4.95 4.79 4.56 4.16 3.98 4.07 3.68 3.59 3.69 3.79 3.81 3.45 3.69 4.09 4.39 4.49 4.73
4.54 4.81 4.84 4.71 4.62 4.65 4.69 4.56 4.60 4.60 4.38 4.00 3.85 3.88 3.96 3.87 3.89 4.18 4.20 4.30 4.36 4.37 4.49 4.10 4.71 4.78 4.87 4.73 4.10 3.93 3.64 3.64 3.56 3.22 3.26 3.19 3.37 3.45 3.46 3.59 3.97 4.12 4.72
4.68 5.30 5.35 5.20 5.27 5.38 5.38 5.08 5.08 4.85 4.58 4.43 4.42 4.55 4.26 4.03 3.83 4.11 4.14 4.28 4.30 4.43 4.51 4.50 4.78 4.71 4.58 4.52 3.66 3.54 3.47 3.19 3.12 3.13 2.97 2.97 3.19 3.09 3.20 3.47 3.78 3.52 4.04
4.95 5.50 5.82 5.93 5.93 5.72 5.43 5.07 4.87 4.87 4.83 4.55 4.31 4.16 4.03 3.90 3.93 4.33 4.20 4.60 4.48 4.27 4.26 4.36 4.62 4.55 4.31 4.38 4.33 3.80 3.19 2.85 2.90 2.82 2.92 3.04 2.88 3.00 3.39 3.77 3.88 3.68 3.39
4.60 5.09 5.31 5.16 5.20 5.07 4.88 4.81 4.78 5.05 4.74 4.43 4.25 4.12 3.79 3.77 3.86 3.88 4.31 4.25 4.28 4.41 4.34 4.31 4.50 4.36 3.99 4.22 4.51 4.46 3.70 3.47 2.95 2.40 2.72 2.90 2.97 3.26 3.41 3.47 3.86 4.02 3.65
3.58 3.88 4.12 4.37 4.39 4.32 4.35 4.30 4.37 4.62 4.46 4.34 4.22 4.10 3.67 3.48 3.47 3.68 3.86 4.03 4.38 4.23 4.26 4.38 4.29 4.25 4.01 3.99 4.22 4.62 4.15 3.64 3.09 2.54 2.39 2.67 3.08 3.41 3.41 3.47 3.57 3.77 3.85
3.20 3.45 3.56 3.67 3.87 3.98 4.08 3.97 3.83 3.72 3.74 3.75 3.83 3.75 3.71 3.55 3.44 3.47 3.60 3.79 4.00 3.79 3.86 3.57 3.68 4.02 4.21 3.94 4.07 4.04 3.96 3.86 3.74 3.13 2.68 2.64 2.93 3.10 3.29 3.29 3.42 3.64 3.86
2.69 3.00 3.15 3.21 3.39 3.72 3.86 3.80 3.77 3.51 3.46 3.50 3.56 3.61 3.62 3.54 3.42 3.35 3.37 3.44 3.51 3.40 3.48 3.42 3.67 3.66 3.69 3.72 3.85 3.92 4.04 4.05 3.83 3.60 3.19 3.09 2.97 2.69 2.74 2.97 3.20 3.40 3.60
2.42 2.59 2.73 2.88 3.03 3.31 3.47 3.57 3.65 3.55 3.42 3.37 3.36 3.37 3.35 3.36 3.24 3.14 3.09 3.16 3.18 3.18 3.25 3.31 3.47 3.39 3.47 3.62 3.71 3.75 3.96 4.00 4.05 4.01 3.44 3.20 2.95 2.43 2.39 2.40 2.63 2.95 3.38